Location: Newark
(44.3248°N, 23.7839°E)
Time: 22:28:17
(UTC+00:00)

PCSat - Pass Details

Date: 13 April 2024
Orbit: 783 x 792 km, 67.1° (Epoch: 20 May)

Event Time Altitude Azimuth Distance (km) Brightness Sun altitude
Exits shadow 18:47:56 25° 152° (SSE) 1,542 10.6 -17.3°
Maximum altitude 18:50:03 34° 111° (ESE) 1,275 10.1 -17.6°
Drops below altitude 10° 18:54:53 10° 48° (NE) 2,359 11.9 -18.3°
Sets 18:57:29 0° 39° (NE) 3,294 12.7 -18.7°
